Location: Cabri�res
(43.7840°N, 5.4986°E)
Time: 03:16:35
(UTC+00:00)

NOSS 3-4 (A) - Pass Details

Date: 09 April 2020
Orbit: 895 x 1317 km, 63.4° (Epoch: 27 May)

Event Time Altitude Azimuth Distance (km) Brightness Sun altitude
Rises 19:25:52 0° 321° (NW) 3,850 7.8 -13.0°
Reaches altitude 10° 19:28:24 10° 320° (NW) 2,949 7.1 -13.4°
Maximum altitude 19:35:28 75° 237° (WSW) 1,219 4.1 -14.5°
Enters shadow 19:42:34 13° 154° (SSE) 3,004 5.6 -15.7°
